Temp
79 81 80 79 80 78 77 76 79 81 80 77 81 82 82 82 83 83 83 66 67 71 74 76 76 75 74 74 74 73 73 72 72 72 71 71 71 70 70 70 70 70 70
79 78 78 77 80 78 76 75 73 73 74 81 81 81 81 81 82 82 82 81 66 68 71 74 75 76 76 75 75 74 73 73 73 72 72 71 71 71 70 70 70 70 70
78 78 77 78 78 78 71 71 72 70 75 76 78 80 81 82 82 81 81 81 79 64 67 72 74 75 76 76 76 76 74 73 73 72 72 72 71 71 71 70 70 70 70
75 77 79 78 78 79 77 76 74 69 69 67 72 75 72 79 80 81 81 81 81 80 71 68 71 73 75 76 76 77 75 74 73 73 73 72 71 71 71 71 70 70 69
74 77 78 78 79 75 74 73 73 72 68 67 65 67 72 76 80 80 81 80 80 80 80 71 66 68 70 73 75 76 76 74 73 73 72 72 72 71 71 71 70 69 69
74 75 77 77 76 71 72 72 71 70 70 70 64 66 72 75 77 79 80 82 82 80 80 79 79 74 66 70 73 75 76 75 74 73 72 72 72 72 71 70 70 70 69
69 73 74 73 69 67 70 69 67 67 65 69 62 62 63 67 69 72 77 78 78 79 81 80 80 80 78 67 70 72 74 75 74 73 72 72 72 72 71 71 70 69 69
73 72 72 72 72 66 67 67 68 66 67 70 66 68 63 67 66 70 72 71 74 75 76 78 79 78 78 78 73 68 71 74 74 74 73 72 72 71 71 71 70 69 69
71 72 72 72 70 69 65 68 71 70 69 71 68 66 59 60 69 71 68 71 75 75 76 76 76 78 77 77 74 70 66 69 73 74 74 73 72 71 71 71 70 69 69
72 71 70 70 71 69 69 70 71 70 68 65 65 64 65 65 60 63 73 75 78 78 78 77 77 77 76 75 68 65 63 65 70 73 74 74 73 72 72 71 70 70 68
71 71 71 69 68 69 69 70 68 68 67 63 62 61 61 61 62 59 56 61 66 71 74 75 76 72 72 70 68 66 61 64 69 71 73 75 74 73 72 72 70 69 68
68 68 68 68 69 69 69 69 67 66 66 63 63 62 61 59 58 59 58 64 63 72 74 74 73 71 69 68 65 61 60 63 67 70 73 75 75 73 72 71 70 69 68
55 56 58 60 62 64 67 67 65 64 64 63 64 62 63 63 65 63 61 61 61 69 71 72 71 71 68 69 67 58 58 61 64 69 72 74 73 70 70 70 70 69 67
53 54 55 56 57 58 59 59 61 63 64 62 62 62 62 62 63 63 61 59 57 63 69 67 67 68 67 64 63 57 61 59 62 66 69 70 69 66 66 67 66 67 66
53 52 53 53 54 55 55 57 57 57 60 61 61 62 61 62 62 62 61 60 58 55 60 68 62 64 62 61 59 58 58 58 60 62 63 64 62 62 63 63 64 64 63
50 50 50 51 51 52 53 53 53 54 54 55 57 59 60 61 60 60 60 60 60 58 55 64 60 60 58 57 57 58 58 57 58 60 61 59 58 59 60 60 61 61 60
50 50 50 50 50 50 51 51 51 52 51 52 53 53 54 58 59 61 60 60 59 59 56 59 61 59 56 55 54 56 57 57 59 58 59 57 57 57 58 58 58 58 58
50 51 52 52 53 52 53 51 50 52 50 50 51 51 51 53 53 57 59 59 58 58 57 55 58 54 53 56 56 54 54 55 57 56 57 56 56 56 56 56 56 56 55
50 51 52 51 51 52 52 53 52 52 51 51 51 50 51 51 51 52 51 51 56 58 58 57 57 49 50 50 49 50 50 50 52 53 55 55 55 55 55 55 54 54 53
48 49 49 49 49 50 50 50 50 51 51 50 50 50 51 50 50 50 50 50 52 51 55 55 51 46 47 47 49 47 45 46 47 50 52 53 53 53 54 54 53 52 51
48 48 47 48 48 49 49 46 48 49 49 49 50 50 49 47 46 48 49 50 51 49 49 51 47 45 45 45 46 47 47 46 43 44 48 49 50 51 52 53 52 50 50
45 46 46 45 44 47 45 45 45 46 48 47 47 48 49 47 49 47 48 48 48 47 48 47 49 49 49 50 49 46 46 41 39 43 45 45 49 48 51 53 52 50 49
45 44 45 45 45 46 44 44 44 46 46 45 44 45 46 49 47 49 48 47 47 48 49 49 47 48 51 51 49 46 46 46 47 43 46 43 45 45 49 52 50 49 49
42 42 42 43 43 44 43 43 43 45 45 44 44 45 45 46 47 47 47 46 46 47 48 50 50 51 52 54 51 50 49 47 41 42 47 42 41 42 44 47 49 49 48
40 40 41 41 40 42 42 41 42 43 43 43 45 46 45 45 45 44 43 42 43 44 48 48 48 48 48 49 50 50 45 41 35 36 44 38 35 35 37 40 46 48 48
38 39 39 40 40 40 41 41 42 43 42 43 45 45 44 44 42 42 41 41 39 41 44 45 47 48 49 50 48 50 47 43 42 35 39 41 33 34 33 35 40 43 45
MSLP
1014.00 1013.90 1014.07 1014.34 1014.41 1014.95 1015.15 1015.45 1015.35 1015.38 1015.87 1016.29 1016.25 1016.19 1016.26 1016.46 1016.61 1016.70 1016.84 1017.42 1017.77 1017.95 1017.97 1017.78 1017.92 1018.11 1018.19 1018.26 1018.33 1018.42 1018.50 1018.51 1018.62 1018.64 1018.74 1018.77 1018.78 1018.87 1018.88 1018.88 1018.84 1018.81 1018.69
1013.67 1013.91 1013.92 1014.06 1014.07 1014.51 1014.71 1014.86 1015.32 1015.67 1015.81 1015.65 1015.98 1015.92 1016.16 1016.23 1016.31 1016.44 1016.63 1016.75 1017.41 1017.52 1017.62 1017.68 1017.61 1017.57 1017.66 1017.72 1017.80 1017.93 1018.05 1018.13 1018.18 1018.26 1018.33 1018.39 1018.53 1018.56 1018.68 1018.70 1018.71 1018.62 1018.60
1013.65 1013.79 1013.91 1013.91 1013.92 1014.05 1014.60 1014.93 1015.33 1015.47 1015.59 1015.56 1015.79 1015.74 1015.99 1015.96 1015.89 1016.15 1016.19 1016.49 1016.65 1017.23 1017.21 1017.23 1017.29 1017.30 1017.29 1017.30 1017.28 1017.38 1017.45 1017.62 1017.64 1017.76 1017.82 1017.99 1018.09 1018.20 1018.28 1018.37 1018.43 1018.46 1018.49
1013.63 1013.58 1013.58 1013.80 1013.82 1013.87 1013.96 1014.45 1015.02 1015.43 1015.52 1015.74 1015.74 1015.89 1016.18 1015.91 1015.71 1015.82 1015.83 1015.85 1016.02 1016.42 1016.63 1016.84 1016.83 1016.94 1016.95 1016.99 1016.94 1016.88 1016.84 1017.02 1017.07 1017.16 1017.25 1017.29 1017.57 1017.81 1017.89 1018.06 1018.16 1018.31 1018.39
1013.59 1013.57 1013.38 1013.32 1013.34 1013.81 1014.09 1014.29 1014.42 1014.83 1015.19 1015.47 1015.90 1015.44 1015.55 1015.41 1015.09 1015.37 1015.20 1015.34 1015.43 1015.71 1015.77 1015.99 1016.26 1016.39 1016.58 1016.59 1016.57 1016.51 1016.49 1016.61 1016.76 1016.81 1016.88 1016.92 1016.99 1017.30 1017.52 1017.67 1017.87 1018.12 1018.22
1013.64 1013.73 1013.30 1013.23 1013.32 1013.69 1013.76 1013.98 1014.15 1014.54 1014.63 1014.79 1015.38 1015.20 1015.17 1014.87 1014.87 1014.66 1014.48 1014.39 1014.60 1014.98 1015.14 1015.41 1015.41 1015.68 1015.93 1016.14 1016.14 1016.13 1016.06 1016.17 1016.38 1016.48 1016.56 1016.46 1016.59 1016.83 1017.03 1017.28 1017.50 1017.78 1018.04
1013.37 1013.38 1013.30 1013.36 1013.53 1013.69 1013.49 1013.80 1013.98 1014.13 1014.44 1014.60 1014.86 1015.11 1015.06 1014.78 1014.69 1014.53 1014.13 1013.86 1013.96 1014.16 1014.46 1014.62 1014.77 1014.72 1014.85 1015.31 1015.55 1015.63 1015.57 1015.70 1015.83 1015.96 1016.18 1016.20 1016.21 1016.37 1016.69 1016.94 1017.25 1017.49 1017.76
1012.49 1012.88 1012.74 1012.78 1013.09 1013.42 1013.35 1013.49 1013.49 1013.66 1013.78 1013.73 1013.91 1014.17 1014.08 1013.84 1013.89 1013.23 1013.34 1013.42 1013.38 1013.17 1013.59 1013.97 1014.03 1013.99 1014.07 1014.26 1014.49 1014.95 1015.05 1015.08 1015.23 1015.29 1015.58 1015.71 1015.86 1016.11 1016.33 1016.52 1016.77 1017.14 1017.44
1012.28 1012.04 1012.11 1012.46 1012.46 1013.00 1012.71 1012.97 1012.76 1012.66 1012.58 1012.89 1013.54 1013.42 1013.35 1012.82 1012.53 1012.32 1012.41 1012.12 1012.27 1012.67 1012.53 1012.88 1013.06 1013.04 1013.19 1013.44 1013.59 1014.02 1014.40 1014.59 1014.82 1014.83 1014.96 1015.14 1015.42 1015.87 1016.17 1016.37 1016.56 1016.88 1017.19
1011.72 1011.76 1012.05 1012.02 1012.18 1012.35 1012.18 1012.10 1012.32 1012.28 1012.48 1012.70 1013.13 1013.19 1012.62 1012.69 1012.68 1012.05 1011.37 1011.29 1010.79 1011.33 1011.63 1011.91 1012.10 1012.20 1012.40 1012.77 1013.01 1013.31 1013.64 1014.03 1014.39 1014.58 1014.44 1014.70 1014.96 1015.28 1015.52 1015.78 1016.25 1016.70 1017.03
1011.75 1011.52 1011.55 1011.81 1011.88 1011.70 1011.51 1011.55 1011.75 1011.93 1011.99 1012.10 1012.30 1012.55 1012.70 1012.68 1012.56 1012.82 1011.91 1011.55 1011.30 1011.39 1011.46 1011.40 1011.36 1011.72 1011.90 1012.11 1012.40 1012.74 1013.15 1013.39 1013.75 1013.93 1013.84 1014.03 1014.33 1014.64 1015.06 1015.18 1015.62 1016.21 1016.77
1011.86 1011.63 1011.51 1011.60 1011.42 1011.28 1011.18 1011.31 1011.20 1011.38 1011.33 1011.54 1011.55 1011.45 1011.48 1011.58 1011.55 1011.62 1011.34 1010.92 1010.84 1010.34 1010.56 1010.92 1010.79 1010.85 1011.40 1011.45 1011.83 1012.40 1012.97 1013.10 1013.10 1013.71 1013.38 1013.31 1013.41 1013.95 1014.36 1014.63 1015.03 1015.59 1016.18
1012.92 1012.67 1012.32 1012.06 1011.74 1011.39 1011.07 1011.01 1011.03 1010.92 1010.90 1010.65 1010.58 1010.59 1010.55 1010.36 1010.24 1010.35 1010.39 1010.17 1009.98 1009.65 1009.70 1009.93 1010.07 1010.41 1010.51 1010.80 1011.11 1011.86 1012.54 1012.96 1013.20 1013.07 1012.95 1012.72 1012.75 1013.20 1013.73 1014.14 1014.41 1014.95 1015.64
1013.96 1013.39 1013.00 1012.60 1012.38 1011.93 1011.57 1011.47 1010.96 1010.41 1010.16 1009.94 1009.75 1009.66 1009.54 1009.45 1009.39 1009.20 1009.02 1009.41 1009.42 1009.01 1009.00 1009.47 1009.73 1009.89 1009.96 1010.49 1010.63 1011.44 1011.44 1012.51 1012.47 1012.59 1012.58 1012.27 1012.44 1012.70 1013.20 1013.71 1014.31 1014.58 1015.00
1014.27 1013.77 1013.36 1012.99 1012.94 1012.75 1012.09 1011.86 1011.17 1010.68 1009.88 1009.25 1008.83 1008.88 1008.63 1008.55 1008.22 1008.09 1008.31 1008.34 1008.67 1008.76 1008.21 1008.35 1009.24 1009.44 1009.64 1009.93 1010.17 1010.94 1011.12 1011.44 1012.16 1012.05 1012.07 1011.96 1012.14 1012.29 1012.57 1013.25 1014.00 1014.37 1014.88
1014.68 1014.18 1013.66 1013.44 1013.19 1012.98 1012.62 1012.03 1011.55 1011.18 1010.67 1010.05 1009.49 1008.68 1008.10 1007.89 1007.64 1007.56 1007.67 1007.94 1008.25 1008.40 1008.02 1008.05 1008.30 1008.75 1009.28 1009.60 1009.52 1009.77 1010.25 1010.79 1011.06 1011.03 1011.18 1011.40 1011.63 1011.99 1012.33 1012.85 1013.56 1014.28 1014.85
1015.15 1014.39 1014.20 1013.88 1013.51 1013.54 1012.79 1012.37 1011.92 1011.60 1011.06 1010.69 1010.25 1009.79 1009.05 1008.27 1007.04 1006.56 1006.80 1007.19 1007.36 1007.48 1007.16 1007.49 1007.65 1008.10 1008.88 1009.10 1009.35 1008.93 1009.66 1009.91 1009.82 1010.07 1010.41 1010.72 1011.14 1011.73 1012.29 1012.71 1013.32 1013.90 1014.54
1015.13 1014.71 1014.31 1014.04 1013.82 1013.71 1013.15 1012.73 1012.25 1011.91 1011.52 1010.92 1010.83 1010.16 1009.64 1009.16 1008.20 1007.73 1007.04 1006.58 1006.64 1006.80 1006.78 1006.89 1007.20 1007.98 1008.29 1008.42 1008.48 1009.01 1009.13 1009.21 1008.95 1009.28 1009.56 1010.13 1010.82 1011.50 1012.09 1012.59 1013.21 1013.70 1014.30
1015.32 1014.96 1014.83 1014.56 1014.27 1013.78 1013.37 1012.94 1012.79 1012.10 1011.88 1011.55 1011.12 1010.61 1010.05 1009.58 1009.16 1008.69 1008.21 1007.76 1006.95 1006.23 1006.29 1006.42 1006.34 1007.36 1007.92 1008.24 1008.35 1008.37 1008.75 1008.95 1008.71 1008.75 1009.15 1010.09 1010.73 1011.34 1011.92 1012.67 1012.99 1013.61 1014.23
1015.75 1015.50 1015.19 1014.72 1014.41 1013.99 1013.55 1013.27 1012.88 1012.47 1012.06 1011.68 1011.35 1010.95 1010.39 1010.08 1009.91 1009.54 1009.03 1008.26 1007.64 1007.15 1006.26 1006.05 1006.46 1007.04 1007.31 1007.60 1007.71 1008.05 1008.69 1008.79 1008.90 1008.79 1009.26 1009.92 1010.46 1011.01 1011.76 1012.36 1012.74 1013.26 1013.98
1016.19 1015.94 1015.57 1015.10 1014.73 1014.30 1013.92 1013.81 1013.34 1012.80 1012.31 1011.84 1011.42 1011.09 1010.91 1010.54 1010.26 1009.98 1009.51 1008.69 1008.15 1007.59 1007.12 1006.57 1006.32 1006.29 1006.78 1007.18 1007.14 1007.32 1007.82 1008.44 1008.94 1008.88 1009.29 1009.80 1010.25 1010.82 1011.44 1012.04 1012.47 1013.10 1013.56
1016.48 1016.08 1015.68 1015.30 1015.00 1014.51 1014.41 1014.10 1013.72 1013.02 1012.42 1012.02 1011.48 1011.04 1010.79 1010.42 1009.94 1009.75 1009.36 1008.97 1008.74 1008.10 1007.51 1007.09 1006.43 1005.99 1005.65 1005.83 1006.23 1006.80 1007.19 1008.17 1009.15 1009.07 1009.19 1009.70 1009.95 1010.30 1010.62 1011.18 1011.85 1012.55 1013.27
1016.34 1015.96 1015.55 1015.18 1014.69 1014.22 1014.00 1013.74 1013.49 1012.98 1012.47 1012.06 1011.64 1011.18 1010.73 1010.23 1009.88 1009.42 1009.12 1008.81 1008.29 1007.92 1007.66 1007.17 1006.43 1005.99 1005.40 1005.01 1005.57 1005.57 1006.10 1006.28 1006.67 1007.34 1008.23 1008.97 1009.22 1009.79 1010.17 1010.47 1011.14 1011.82 1012.59
1016.25 1015.82 1015.47 1015.11 1014.64 1014.25 1014.08 1013.82 1013.51 1012.97 1012.42 1012.03 1011.65 1011.23 1010.74 1010.25 1009.85 1009.52 1008.98 1008.43 1008.14 1007.69 1007.27 1006.86 1006.22 1005.69 1005.30 1004.73 1004.55 1004.66 1004.91 1004.77 1006.09 1006.63 1007.18 1008.07 1009.02 1008.87 1009.61 1010.03 1010.58 1011.11 1011.87
1016.25 1015.74 1015.30 1014.91 1014.54 1014.04 1013.76 1013.65 1013.36 1012.69 1012.10 1011.73 1011.46 1011.09 1010.73 1010.23 1009.79 1009.71 1009.15 1008.53 1007.94 1007.45 1006.95 1006.53 1006.05 1005.66 1005.25 1004.80 1004.51 1004.28 1004.37 1005.10 1005.98 1006.22 1006.26 1006.91 1008.34 1009.28 1009.71 1009.86 1009.93 1010.58 1011.33
1016.06 1015.57 1015.05 1014.64 1014.17 1013.74 1013.37 1013.19 1012.89 1012.22 1011.60 1011.14 1010.81 1010.53 1010.37 1010.23 1010.09 1009.81 1009.25 1008.54 1007.92 1007.47 1006.79 1006.08 1005.34 1004.82 1004.51 1003.97 1003.70 1003.35 1003.26 1003.59 1004.38 1005.65 1005.57 1006.27 1007.53 1008.15 1009.73 1010.01 1009.57 1010.23 1010.81
Wind_Speed
8 8 8 7 8 8 7 8 9 9 9 10 12 11 10 9 9 5 5 11 10 12 13 13 13 12 12 12 11 11 11 11 11 11 10 9 8 7 6 5 4 3 3
7 7 8 8 9 9 6 6 5 7 7 11 12 12 11 10 9 9 6 5 11 13 14 15 15 15 16 15 15 14 14 14 14 13 13 12 11 10 8 7 6 5 4
8 8 6 8 9 9 6 4 8 4 9 7 10 10 10 11 9 10 9 7 6 13 14 17 17 16 15 15 15 15 15 14 15 13 14 15 14 12 10 9 8 7 5
9 8 7 7 7 8 9 10 8 6 8 5 8 8 5 9 10 11 9 8 7 7 10 15 16 17 16 17 17 17 15 12 11 11 12 13 15 14 13 10 7 6 4
8 9 7 7 8 8 9 9 9 9 8 7 6 5 7 9 10 10 12 12 11 10 8 10 16 15 15 16 18 17 16 10 10 10 10 11 14 16 14 11 9 8 6
8 9 8 9 8 7 9 9 11 8 8 10 6 5 8 9 9 10 11 10 11 12 11 12 9 10 16 17 18 18 17 14 11 11 12 13 13 15 15 13 13 10 7
11 12 9 9 7 7 9 8 7 9 6 7 2 5 6 8 11 9 10 10 11 10 13 12 10 9 9 17 18 18 18 17 16 14 13 14 14 16 16 16 14 11 9
12 11 10 8 9 6 9 9 11 8 9 9 7 9 9 11 9 11 11 9 12 9 10 13 14 14 10 8 12 18 19 20 18 16 15 16 16 17 18 18 16 13 11
10 10 10 10 9 10 7 11 12 14 10 9 13 8 4 9 10 7 10 9 13 11 11 13 14 15 14 12 10 12 16 16 18 17 16 16 19 18 18 18 16 15 13
7 8 9 11 11 8 10 10 10 11 10 9 4 9 11 2 2 8 11 10 11 13 16 11 12 13 14 11 10 9 13 16 17 18 18 18 19 20 21 19 17 16 14
8 8 9 10 9 8 10 12 11 13 9 9 9 4 9 8 10 8 7 4 3 9 11 12 11 9 10 9 7 9 12 16 19 20 20 21 21 21 21 21 19 17 14
5 4 6 7 9 10 10 11 10 12 12 11 10 10 10 8 11 11 12 14 12 10 8 9 10 8 7 8 8 10 13 16 16 22 21 23 22 22 23 22 21 19 17
6 9 10 10 6 7 10 9 10 11 12 12 14 12 12 13 12 12 13 13 13 12 10 9 8 8 6 7 9 12 12 15 17 21 23 23 20 20 20 22 22 20 18
6 8 8 8 10 9 8 7 6 10 12 12 16 13 12 12 13 13 12 11 11 11 11 12 5 8 7 7 7 11 7 17 17 19 22 21 19 14 16 16 18 18 17
6 7 9 8 8 8 9 9 6 10 8 10 13 14 12 13 13 13 11 8 7 9 13 10 6 8 6 6 7 8 8 9 19 19 18 16 12 14 18 19 17 15 14
8 8 8 8 7 9 8 9 8 8 9 8 8 9 10 9 9 8 9 9 10 13 14 10 6 5 6 6 8 11 12 19 23 22 20 15 16 16 17 17 15 14 14
6 8 7 8 8 8 9 8 9 9 8 10 9 10 11 13 7 10 9 10 11 10 10 8 4 5 8 8 6 8 11 13 12 22 19 19 18 17 17 17 16 16 16
8 9 10 10 10 10 8 8 9 8 9 10 10 10 10 9 11 11 7 12 10 8 6 10 7 6 9 10 9 10 10 10 11 17 21 20 19 18 16 16 16 15 14
10 10 10 10 10 10 10 10 10 11 11 10 10 10 10 9 8 8 8 8 9 10 11 13 13 2 4 3 3 4 5 4 6 14 18 18 18 17 16 16 15 14 12
10 10 10 10 10 10 10 12 12 11 11 10 10 11 10 10 12 13 9 8 7 8 7 7 5 3 3 3 4 5 4 2 3 5 9 11 15 16 17 18 17 16 14
9 9 10 10 10 10 7 12 12 11 11 12 11 10 10 12 14 12 9 12 12 7 6 7 3 3 3 3 9 5 7 5 1 2 5 5 7 8 9 15 12 16 16
8 8 9 9 9 7 11 14 13 12 12 12 12 11 11 12 11 17 16 16 14 11 12 6 7 7 9 8 7 7 6 5 4 4 6 6 7 7 9 9 17 18 18
9 10 10 10 11 11 14 17 17 11 11 11 12 12 12 10 11 12 15 17 16 17 15 13 12 9 10 8 8 10 12 12 11 7 12 9 8 9 8 8 19 20 19
10 10 10 11 11 9 14 15 17 12 11 12 12 12 13 14 13 14 14 14 13 13 13 11 11 11 12 10 11 13 16 17 3 5 12 8 6 6 7 7 20 21 20
10 10 9 10 10 10 12 13 13 10 10 10 10 12 13 13 16 21 16 13 14 13 13 19 20 19 21 22 15 9 8 7 4 4 11 5 4 3 2 5 8 19 19
10 9 10 9 11 11 11 12 13 9 10 9 11 10 12 12 18 21 16 16 15 16 15 16 14 15 17 15 20 15 10 12 8 3 5 10 4 6 3 3 5 6 9
Wind_Direction
224 220 224 219 214 215 207 214 211 211 208 207 218 223 223 226 235 234 251 175 217 235 247 243 226 228 229 229 231 230 230 225 224 221 222 225 221 222 221 224 237 256 281
227 226 225 213 225 216 217 212 218 199 205 214 224 219 226 228 238 239 242 229 208 227 234 243 250 233 229 228 228 231 235 236 232 229 226 225 228 225 227 231 239 247 265
238 216 224 218 219 219 219 194 209 208 218 222 240 228 230 237 230 237 239 246 238 217 228 234 239 245 246 246 240 238 238 239 239 240 230 228 226 226 224 229 239 249 256
230 232 221 221 235 232 225 216 220 209 220 210 224 228 235 241 244 246 245 241 238 259 214 228 234 239 241 243 245 246 246 245 221 226 231 225 219 222 221 226 227 225 196
247 248 242 242 238 229 230 227 225 220 217 210 220 193 233 235 239 246 244 243 243 242 248 218 220 229 235 239 242 246 254 238 219 232 237 228 218 220 217 212 200 194 187
245 255 252 251 253 238 238 234 234 223 226 216 204 234 241 251 251 243 247 248 248 247 240 246 233 230 226 234 237 241 246 247 234 238 242 233 225 215 208 197 190 189 192
221 238 244 236 233 238 240 238 239 236 217 220 190 231 245 242 235 258 253 248 247 255 253 244 239 240 227 221 230 233 237 241 241 238 241 236 223 205 198 194 191 188 191
221 224 236 243 234 229 233 233 223 216 226 217 222 237 250 237 233 225 225 223 234 223 233 244 241 232 234 232 222 224 229 233 236 235 236 231 219 201 199 194 190 191 189
222 229 233 237 231 228 223 233 238 229 235 216 213 218 202 237 252 208 221 223 232 228 228 228 229 231 224 227 223 222 218 221 230 230 233 231 218 204 203 205 198 195 199
234 233 237 243 239 237 236 240 244 238 232 232 214 234 243 216 242 251 240 235 238 250 239 228 230 227 225 224 220 219 203 210 218 230 232 227 215 210 206 203 196 201 199
257 250 248 247 246 248 246 249 238 240 223 221 219 192 229 239 234 243 261 260 233 237 241 241 234 229 217 215 209 213 217 204 214 223 227 229 221 216 214 201 195 201 201
274 323 299 273 272 266 259 254 252 250 234 226 228 224 225 216 223 223 233 239 251 248 231 234 228 227 219 210 208 230 211 210 210 227 228 229 223 218 221 207 199 196 192
11 9 5 359 314 271 269 263 253 243 244 234 227 231 231 232 233 222 229 236 240 243 249 235 226 220 209 210 208 196 213 224 224 227 228 229 228 221 219 218 207 191 193
5 4 6 12 356 359 355 344 315 262 249 239 239 235 234 234 231 227 220 216 238 244 232 244 208 220 208 197 197 200 195 223 221 226 232 228 236 209 214 211 193 194 192
1 6 19 12 1 350 2 340 349 355 318 261 243 241 243 244 231 219 215 212 225 244 235 227 208 206 201 187 186 189 197 221 225 223 226 230 224 173 166 176 188 187 186
8 0 14 14 1 358 353 358 356 353 346 356 350 312 257 238 216 213 218 222 222 233 249 247 208 183 191 203 196 199 210 218 216 217 219 193 166 164 164 167 174 178 179
2 20 8 359 6 350 357 357 2 351 356 351 350 340 349 336 286 226 215 219 219 217 237 241 209 176 197 210 215 206 222 217 218 209 189 169 163 168 172 170 172 175 180
16 14 12 9 7 356 356 358 359 350 347 352 339 342 347 333 350 333 257 227 211 213 234 243 224 201 212 217 214 214 220 221 212 196 176 170 172 175 176 170 172 175 182
14 11 3 1 354 355 355 359 348 351 346 343 340 339 336 338 335 338 334 337 292 238 236 243 249 130 197 189 186 198 199 209 203 181 166 171 175 172 169 173 171 174 180
2 357 352 350 348 344 351 350 346 340 337 338 337 333 334 337 336 328 319 317 322 323 292 247 233 181 182 195 193 180 182 204 176 163 169 172 174 176 180 181 178 180 179
350 345 340 340 339 336 353 343 337 331 327 325 325 328 323 331 313 327 323 319 319 315 309 305 217 150 174 169 200 181 193 166 38 133 155 173 170 175 184 189 183 178 178
335 325 328 323 321 321 330 332 333 325 321 322 322 321 318 308 323 319 323 321 311 303 300 291 287 241 215 217 184 184 166 154 189 204 174 183 177 185 182 192 188 182 186
330 327 325 322 319 321 329 329 331 321 319 317 318 318 318 316 311 315 320 317 314 306 287 285 282 274 262 209 196 186 190 191 205 173 182 193 182 187 189 186 176 179 188
319 317 313 312 311 305 310 315 320 314 311 311 313 312 313 315 313 325 317 312 306 302 298 291 288 285 269 262 208 201 199 205 60 147 190 189 186 191 179 182 183 181 187
313 312 312 310 305 301 301 305 311 307 297 295 298 309 316 312 325 330 319 317 314 306 299 295 289 276 279 275 264 216 205 171 184 213 188 137 165 126 156 184 184 187 190
313 315 315 311 308 304 309 317 326 318 311 311 307 308 308 316 325 322 317 315 310 306 303 307 299 290 282 271 254 233 195 196 188 183 202 176 150 143 164 218 173 189 188